QPF
0.00 0.00 0.00 0.00 0.00 0.00 0.00 0.00 0.00 0.00 0.00 0.00 0.00 0.00 0.00 0.00 0.02 0.12 0.08 0.01 0.00 0.00 0.00 0.00 0.00 0.00 0.00 0.00 0.00 0.00 0.00 0.00 0.00 0.00 0.00 0.00 0.00 0.00 0.00 0.00 0.00 0.00 0.00 0.01 0.01 0.01 0.02 0.01 0.01
0.00 0.00 0.00 0.00 0.00 0.00 0.00 0.00 0.00 0.00 0.00 0.00 0.00 0.00 0.00 0.00 0.00 0.01 0.01 0.00 0.00 0.00 0.00 0.00 0.00 0.00 0.00 0.00 0.00 0.00 0.00 0.00 0.00 0.00 0.00 0.00 0.00 0.00 0.00 0.00 0.00 0.00 0.00 0.01 0.01 0.01 0.01 0.01 0.01
0.00 0.00 0.00 0.00 0.00 0.00 0.00 0.00 0.00 0.00 0.00 0.00 0.00 0.00 0.00 0.00 0.00 0.01 0.01 0.00 0.00 0.00 0.00 0.00 0.00 0.00 0.00 0.00 0.00 0.00 0.00 0.00 0.00 0.00 0.00 0.00 0.00 0.00 0.00 0.00 0.00 0.00 0.00 0.01 0.01 0.01 0.01 0.01 0.01
0.00 0.00 0.00 0.00 0.00 0.00 0.00 0.00 0.00 0.00 0.00 0.00 0.00 0.00 0.00 0.00 0.00 0.00 0.00 0.00 0.00 0.00 0.00 0.00 0.00 0.00 0.00 0.00 0.00 0.00 0.00 0.00 0.00 0.00 0.00 0.00 0.00 0.00 0.00 0.00 0.00 0.00 0.00 0.00 0.00 0.01 0.01 0.00 0.00
0.00 0.00 0.00 0.00 0.00 0.00 0.00 0.00 0.00 0.00 0.00 0.00 0.00 0.00 0.00 0.01 0.01 0.00 0.00 0.00 0.00 0.00 0.01 0.00 0.00 0.00 0.00 0.00 0.00 0.00 0.00 0.00 0.00 0.00 0.00 0.00 0.00 0.00 0.00 0.00 0.00 0.00 0.00 0.00 0.00 0.00 0.00 0.00 0.00
0.00 0.00 0.00 0.00 0.00 0.00 0.00 0.00 0.00 0.00 0.00 0.00 0.00 0.00 0.01 0.04 0.03 0.00 0.00 0.00 0.00 0.01 0.03 0.01 0.00 0.00 0.00 0.00 0.00 0.00 0.00 0.00 0.00 0.00 0.00 0.00 0.00 0.00 0.00 0.00 0.00 0.00 0.00 0.00 0.00 0.00 0.00 0.00 0.00
0.00 0.00 0.00 0.00 0.00 0.00 0.00 0.00 0.00 0.00 0.00 0.00 0.00 0.00 0.01 0.03 0.01 0.00 0.00 0.00 0.01 0.04 0.06 0.02 0.00 0.00 0.00 0.00 0.00 0.01 0.00 0.01 0.01 0.01 0.01 0.00 0.00 0.00 0.00 0.00 0.00 0.00 0.00 0.00 0.00 0.00 0.00 0.00 0.00
0.00 0.00 0.00 0.00 0.00 0.00 0.00 0.00 0.00 0.00 0.00 0.00 0.00 0.00 0.00 0.01 0.01 0.02 0.00 0.00 0.01 0.03 0.05 0.03 0.01 0.00 0.00 0.00 0.00 0.01 0.01 0.02 0.02 0.02 0.02 0.01 0.00 0.00 0.00 0.00 0.00 0.00 0.00 0.00 0.00 0.00 0.00 0.00 0.00
0.00 0.00 0.00 0.00 0.00 0.00 0.00 0.00 0.00 0.00 0.00 0.00 0.00 0.00 0.00 0.02 0.01 0.01 0.00 0.01 0.02 0.03 0.04 0.05 0.04 0.02 0.01 0.00 0.00 0.01 0.01 0.02 0.03 0.03 0.03 0.02 0.02 0.01 0.01 0.00 0.00 0.00 0.00 0.00 0.00 0.00 0.00 0.00 0.00
0.00 0.00 0.00 0.00 0.00 0.00 0.00 0.00 0.00 0.00 0.00 0.00 0.00 0.00 0.00 0.00 0.00 0.01 0.02 0.02 0.01 0.02 0.02 0.03 0.06 0.05 0.03 0.02 0.02 0.01 0.01 0.01 0.03 0.05 0.04 0.04 0.07 0.07 0.03 0.03 0.01 0.00 0.00 0.00 0.00 0.00 0.00 0.00 0.00
0.00 0.00 0.00 0.00 0.00 0.00 0.00 0.00 0.00 0.00 0.00 0.00 0.00 0.00 0.00 0.00 0.00 0.01 0.03 0.03 0.05 0.06 0.06 0.03 0.05 0.09 0.07 0.07 0.06 0.04 0.04 0.05 0.07 0.11 0.10 0.10 0.14 0.11 0.10 0.06 0.01 0.00 0.00 0.00 0.00 0.00 0.00 0.00 0.00
0.00 0.00 0.00 0.00 0.00 0.00 0.00 0.00 0.00 0.00 0.00 0.00 0.00 0.00 0.00 0.00 0.01 0.03 0.06 0.07 0.12 0.18 0.13 0.07 0.05 0.07 0.09 0.12 0.11 0.09 0.10 0.11 0.10 0.17 0.16 0.16 0.16 0.14 0.11 0.08 0.04 0.02 0.00 0.01 0.01 0.01 0.01 0.01 0.00
0.00 0.00 0.00 0.00 0.00 0.00 0.00 0.00 0.00 0.00 0.00 0.00 0.00 0.00 0.01 0.01 0.02 0.02 0.05 0.14 0.22 0.24 0.22 0.19 0.19 0.11 0.10 0.21 0.23 0.15 0.17 0.23 0.27 0.31 0.25 0.21 0.16 0.12 0.12 0.13 0.11 0.05 0.02 0.03 0.03 0.02 0.03 0.03 0.02
0.00 0.00 0.00 0.00 0.00 0.00 0.00 0.00 0.00 0.00 0.00 0.00 0.00 0.00 0.01 0.03 0.03 0.09 0.12 0.09 0.15 0.27 0.21 0.22 0.31 0.29 0.18 0.18 0.25 0.23 0.22 0.31 0.37 0.37 0.32 0.25 0.22 0.20 0.19 0.19 0.16 0.08 0.06 0.06 0.04 0.03 0.05 0.05 0.04
0.00 0.00 0.00 0.00 0.00 0.00 0.00 0.00 0.00 0.00 0.00 0.00 0.00 0.00 0.00 0.02 0.04 0.08 0.11 0.09 0.09 0.18 0.22 0.20 0.21 0.30 0.31 0.25 0.23 0.24 0.23 0.31 0.32 0.32 0.31 0.27 0.30 0.38 0.33 0.25 0.20 0.14 0.09 0.08 0.08 0.06 0.06 0.05 0.06
0.00 0.00 0.00 0.00 0.00 0.00 0.00 0.00 0.00 0.00 0.00 0.00 0.00 0.00 0.00 0.01 0.03 0.06 0.08 0.10 0.08 0.15 0.24 0.30 0.24 0.24 0.29 0.29 0.27 0.26 0.24 0.29 0.36 0.37 0.45 0.40 0.44 0.51 0.41 0.31 0.22 0.17 0.16 0.17 0.16 0.12 0.10 0.08 0.09
0.00 0.00 0.00 0.00 0.00 0.00 0.00 0.00 0.00 0.00 0.00 0.00 0.00 0.00 0.01 0.01 0.02 0.06 0.10 0.11 0.09 0.14 0.25 0.30 0.26 0.23 0.24 0.29 0.30 0.30 0.34 0.37 0.39 0.41 0.47 0.50 0.48 0.46 0.38 0.32 0.29 0.25 0.23 0.22 0.18 0.17 0.16 0.14 0.11
0.00 0.00 0.00 0.00 0.00 0.00 0.00 0.00 0.00 0.00 0.00 0.00 0.00 0.01 0.01 0.02 0.02 0.07 0.13 0.13 0.14 0.14 0.21 0.28 0.31 0.27 0.24 0.25 0.29 0.34 0.42 0.47 0.45 0.39 0.43 0.51 0.49 0.42 0.36 0.31 0.26 0.25 0.25 0.24 0.25 0.25 0.20 0.16 0.12
0.00 0.00 0.00 0.00 0.00 0.00 0.00 0.01 0.01 0.01 0.01 0.01 0.01 0.01 0.01 0.04 0.03 0.03 0.07 0.07 0.10 0.11 0.14 0.18 0.26 0.26 0.21 0.20 0.19 0.25 0.35 0.40 0.41 0.38 0.38 0.43 0.41 0.40 0.40 0.37 0.30 0.26 0.25 0.24 0.25 0.24 0.22 0.17 0.15
0.00 0.00 0.00 0.01 0.00 0.00 0.00 0.00 0.01 0.01 0.02 0.01 0.02 0.02 0.01 0.02 0.03 0.03 0.04 0.06 0.13 0.16 0.14 0.18 0.22 0.24 0.22 0.19 0.17 0.22 0.29 0.32 0.32 0.32 0.31 0.29 0.29 0.31 0.32 0.34 0.31 0.28 0.27 0.26 0.25 0.26 0.27 0.19 0.15
0.00 0.00 0.00 0.01 0.00 0.00 0.00 0.01 0.02 0.03 0.04 0.04 0.04 0.03 0.02 0.02 0.02 0.02 0.03 0.04 0.08 0.11 0.13 0.18 0.22 0.24 0.23 0.20 0.20 0.23 0.24 0.27 0.28 0.28 0.28 0.26 0.22 0.22 0.24 0.28 0.27 0.26 0.26 0.25 0.23 0.22 0.21 0.18 0.14
0.00 0.00 0.00 0.00 0.00 0.01 0.01 0.03 0.06 0.09 0.11 0.11 0.08 0.05 0.03 0.03 0.04 0.03 0.04 0.05 0.06 0.07 0.11 0.15 0.20 0.24 0.28 0.29 0.31 0.27 0.23 0.22 0.22 0.24 0.22 0.20 0.19 0.19 0.19 0.23 0.26 0.22 0.20 0.21 0.20 0.19 0.16 0.16 0.14
0.00 0.00 0.00 0.00 0.00 0.01 0.02 0.05 0.09 0.11 0.20 0.25 0.21 0.11 0.06 0.05 0.03 0.03 0.03 0.05 0.04 0.06 0.09 0.13 0.19 0.23 0.26 0.33 0.38 0.41 0.34 0.26 0.22 0.20 0.19 0.17 0.17 0.16 0.15 0.15 0.18 0.20 0.18 0.15 0.13 0.12 0.12 0.11 0.10
0.00 0.00 0.00 0.00 0.00 0.01 0.01 0.05 0.12 0.15 0.28 0.29 0.18 0.13 0.06 0.03 0.02 0.02 0.02 0.02 0.02 0.03 0.05 0.09 0.16 0.21 0.23 0.27 0.28 0.28 0.26 0.24 0.22 0.18 0.16 0.16 0.16 0.17 0.17 0.16 0.15 0.16 0.16 0.13 0.11 0.10 0.09 0.09 0.09
0.00 0.00 0.02 0.04 0.04 0.04 0.03 0.05 0.12 0.15 0.23 0.22 0.12 0.07 0.03 0.02 0.02 0.03 0.03 0.03 0.03 0.03 0.05 0.07 0.10 0.15 0.19 0.21 0.21 0.18 0.20 0.18 0.18 0.21 0.21 0.20 0.18 0.17 0.18 0.17 0.15 0.14 0.13 0.12 0.11 0.10 0.09 0.08 0.08
0.00 0.00 0.03 0.07 0.07 0.07 0.07 0.09 0.16 0.15 0.17 0.13 0.08 0.05 0.03 0.02 0.04 0.04 0.03 0.04 0.03 0.05 0.05 0.06 0.08 0.08 0.11 0.12 0.12 0.13 0.17 0.17 0.14 0.15 0.17 0.17 0.17 0.16 0.16 0.15 0.15 0.14 0.13 0.11 0.10 0.09 0.08 0.07 0.06
0.00 0.00 0.00 0.02 0.02 0.05 0.09 0.16 0.20 0.14 0.15 0.09 0.05 0.04 0.03 0.04 0.05 0.05 0.04 0.04 0.04 0.03 0.04 0.05 0.06 0.06 0.06 0.06 0.07 0.09 0.12 0.12 0.12 0.11 0.12 0.15 0.16 0.15 0.13 0.11 0.11 0.11 0.11 0.09 0.06 0.05 0.04 0.04 0.03
0.00 0.00 0.01 0.03 0.05 0.07 0.07 0.15 0.23 0.22 0.19 0.13 0.06 0.03 0.02 0.02 0.03 0.04 0.03 0.04 0.04 0.04 0.04 0.03 0.04 0.05 0.06 0.06 0.05 0.06 0.08 0.09 0.09 0.08 0.08 0.08 0.08 0.09 0.09 0.08 0.07 0.06 0.05 0.04 0.03 0.02 0.02 0.02 0.02
0.00 0.00 0.01 0.04 0.03 0.08 0.11 0.18 0.21 0.23 0.20 0.13 0.09 0.05 0.02 0.01 0.02 0.03 0.03 0.03 0.03 0.04 0.05 0.06 0.05 0.06 0.06 0.06 0.06 0.06 0.06 0.07 0.07 0.08 0.07 0.06 0.05 0.05 0.06 0.05 0.04 0.04 0.03 0.02 0.02 0.01 0.01 0.02 0.02
0.00 0.00 0.01 0.07 0.06 0.06 0.11 0.18 0.13 0.16 0.17 0.11 0.09 0.06 0.03 0.01 0.01 0.03 0.03 0.03 0.03 0.04 0.05 0.07 0.07 0.07 0.08 0.07 0.06 0.06 0.05 0.04 0.05 0.05 0.05 0.05 0.05 0.04 0.03 0.02 0.02 0.02 0.02 0.02 0.02 0.01 0.01 0.01 0.01
MSLP
1008.78 1009.17 1009.57 1009.86 1009.94 1009.78 1009.40 1008.88 1008.31 1007.81 1007.47 1007.31 1007.34 1007.48 1007.65 1007.77 1007.78 1007.68 1007.51 1007.34 1007.26 1007.34 1007.63 1008.13 1008.78 1009.51 1010.23 1010.86 1011.38 1011.78 1012.10 1012.39 1012.69 1013.05 1013.46 1013.90 1014.33 1014.71 1014.99 1015.17 1015.26 1015.31 1015.36 1015.46 1015.61 1015.83 1016.09 1016.33 1016.54
1009.07 1009.53 1009.89 1010.04 1009.91 1009.49 1008.85 1008.09 1007.34 1006.73 1006.35 1006.21 1006.28 1006.49 1006.74 1006.94 1007.03 1007.00 1006.91 1006.83 1006.85 1007.03 1007.40 1007.96 1008.65 1009.38 1010.09 1010.70 1011.21 1011.61 1011.96 1012.30 1012.68 1013.12 1013.60 1014.09 1014.54 1014.89 1015.14 1015.27 1015.33 1015.35 1015.40 1015.51 1015.70 1015.95 1016.23 1016.50 1016.70
1009.43 1009.91 1010.19 1010.18 1009.82 1009.15 1008.26 1007.28 1006.37 1005.67 1005.25 1005.12 1005.24 1005.52 1005.83 1006.10 1006.26 1006.31 1006.31 1006.32 1006.44 1006.71 1007.17 1007.80 1008.53 1009.28 1009.98 1010.60 1011.10 1011.52 1011.90 1012.29 1012.73 1013.22 1013.74 1014.24 1014.69 1015.02 1015.24 1015.34 1015.38 1015.42 1015.49 1015.64 1015.87 1016.16 1016.47 1016.73 1016.91
1009.76 1010.22 1010.41 1010.23 1009.67 1008.78 1007.68 1006.54 1005.51 1004.75 1004.32 1004.21 1004.37 1004.69 1005.06 1005.37 1005.58 1005.70 1005.77 1005.88 1006.09 1006.47 1007.02 1007.72 1008.49 1009.27 1009.99 1010.60 1011.11 1011.55 1011.96 1012.38 1012.85 1013.36 1013.89 1014.39 1014.81 1015.12 1015.32 1015.42 1015.47 1015.54 1015.66 1015.87 1016.16 1016.49 1016.80 1017.05 1017.19
1009.99 1010.40 1010.48 1010.16 1009.43 1008.39 1007.16 1005.93 1004.86 1004.09 1003.67 1003.59 1003.78 1004.12 1004.50 1004.83 1005.07 1005.23 1005.37 1005.56 1005.87 1006.35 1006.99 1007.75 1008.58 1009.39 1010.12 1010.74 1011.25 1011.70 1012.11 1012.55 1013.02 1013.53 1014.05 1014.53 1014.92 1015.21 1015.39 1015.51 1015.60 1015.72 1015.91 1016.19 1016.53 1016.88 1017.19 1017.40 1017.49
1010.05 1010.38 1010.35 1009.91 1009.09 1007.98 1006.73 1005.50 1004.46 1003.74 1003.37 1003.32 1003.52 1003.85 1004.21 1004.53 1004.77 1004.94 1005.13 1005.39 1005.78 1006.35 1007.07 1007.90 1008.77 1009.60 1010.34 1010.95 1011.46 1011.90 1012.31 1012.74 1013.20 1013.69 1014.18 1014.63 1014.99 1015.26 1015.45 1015.59 1015.73 1015.91 1016.18 1016.51 1016.89 1017.25 1017.55 1017.71 1017.74
1009.90 1010.12 1010.00 1009.50 1008.66 1007.57 1006.38 1005.26 1004.33 1003.70 1003.40 1003.39 1003.58 1003.88 1004.18 1004.44 1004.64 1004.81 1005.02 1005.33 1005.79 1006.43 1007.21 1008.09 1008.99 1009.82 1010.55 1011.15 1011.63 1012.05 1012.45 1012.86 1013.30 1013.77 1014.23 1014.64 1014.99 1015.25 1015.44 1015.61 1015.80 1016.04 1016.36 1016.74 1017.14 1017.50 1017.76 1017.87 1017.85
1009.55 1009.67 1009.47 1008.95 1008.15 1007.16 1006.13 1005.17 1004.41 1003.92 1003.70 1003.71 1003.87 1004.10 1004.32 1004.49 1004.63 1004.76 1004.97 1005.31 1005.82 1006.51 1007.33 1008.23 1009.13 1009.95 1010.64 1011.21 1011.66 1012.05 1012.43 1012.82 1013.25 1013.71 1014.15 1014.55 1014.88 1015.14 1015.35 1015.54 1015.76 1016.04 1016.39 1016.78 1017.18 1017.52 1017.75 1017.82 1017.75
1009.06 1009.07 1008.83 1008.32 1007.62 1006.79 1005.95 1005.20 1004.63 1004.28 1004.14 1004.15 1004.26 1004.39 1004.49 1004.56 1004.61 1004.70 1004.89 1005.24 1005.79 1006.50 1007.34 1008.24 1009.11 1009.89 1010.53 1011.05 1011.47 1011.83 1012.19 1012.59 1013.02 1013.47 1013.92 1014.32 1014.66 1014.92 1015.14 1015.34 1015.58 1015.87 1016.22 1016.61 1017.00 1017.31 1017.50 1017.55 1017.46
1008.52 1008.43 1008.15 1007.70 1007.11 1006.46 1005.83 1005.30 1004.91 1004.68 1004.58 1004.57 1004.59 1004.60 1004.57 1004.51 1004.47 1004.50 1004.68 1005.04 1005.60 1006.33 1007.17 1008.05 1008.88 1009.60 1010.20 1010.66 1011.05 1011.39 1011.75 1012.16 1012.62 1013.10 1013.57 1013.99 1014.35 1014.63 1014.85 1015.05 1015.28 1015.56 1015.90 1016.27 1016.62 1016.91 1017.09 1017.12 1017.04
1008.01 1007.85 1007.55 1007.15 1006.68 1006.20 1005.76 1005.41 1005.15 1005.00 1004.91 1004.84 1004.75 1004.62 1004.44 1004.26 1004.13 1004.12 1004.28 1004.65 1005.22 1005.96 1006.80 1007.65 1008.44 1009.12 1009.66 1010.09 1010.45 1010.80 1011.18 1011.62 1012.12 1012.65 1013.17 1013.63 1014.01 1014.30 1014.53 1014.72 1014.93 1015.19 1015.49 1015.82 1016.15 1016.43 1016.61 1016.67 1016.63
1007.62 1007.39 1007.08 1006.72 1006.35 1006.00 1005.70 1005.47 1005.30 1005.17 1005.04 1004.87 1004.65 1004.38 1004.07 1003.78 1003.57 1003.52 1003.67 1004.06 1004.65 1005.41 1006.25 1007.10 1007.86 1008.51 1009.03 1009.45 1009.81 1010.18 1010.59 1011.08 1011.64 1012.23 1012.80 1013.31 1013.72 1014.03 1014.25 1014.43 1014.61 1014.83 1015.09 1015.40 1015.71 1015.99 1016.19 1016.31 1016.34
1007.39 1007.11 1006.79 1006.45 1006.13 1005.86 1005.64 1005.46 1005.31 1005.15 1004.94 1004.66 1004.31 1003.90 1003.47 1003.09 1002.83 1002.76 1002.92 1003.33 1003.96 1004.74 1005.60 1006.46 1007.23 1007.88 1008.41 1008.85 1009.24 1009.65 1010.12 1010.67 1011.29 1011.94 1012.56 1013.11 1013.55 1013.86 1014.08 1014.24 1014.39 1014.56 1014.80 1015.08 1015.39 1015.70 1015.95 1016.15 1016.27
1007.33 1007.01 1006.66 1006.32 1006.02 1005.77 1005.56 1005.37 1005.18 1004.95 1004.65 1004.26 1003.79 1003.27 1002.75 1002.31 1002.02 1001.95 1002.13 1002.57 1003.23 1004.05 1004.94 1005.83 1006.64 1007.33 1007.91 1008.41 1008.86 1009.34 1009.87 1010.48 1011.15 1011.84 1012.49 1013.07 1013.51 1013.83 1014.04 1014.18 1014.29 1014.44 1014.65 1014.93 1015.26 1015.60 1015.94 1016.22 1016.45
1007.39 1007.02 1006.64 1006.28 1005.96 1005.69 1005.45 1005.22 1004.97 1004.65 1004.26 1003.78 1003.23 1002.64 1002.08 1001.62 1001.32 1001.26 1001.46 1001.91 1002.59 1003.43 1004.36 1005.29 1006.16 1006.92 1007.59 1008.17 1008.71 1009.27 1009.87 1010.52 1011.22 1011.93 1012.59 1013.16 1013.61 1013.91 1014.10 1014.22 1014.31 1014.44 1014.64 1014.92 1015.27 1015.68 1016.09 1016.48 1016.83
1007.49 1007.08 1006.67 1006.27 1005.92 1005.61 1005.33 1005.04 1004.72 1004.35 1003.90 1003.37 1002.79 1002.20 1001.64 1001.19 1000.90 1000.84 1001.04 1001.48 1002.15 1002.99 1003.93 1004.89 1005.82 1006.67 1007.43 1008.11 1008.75 1009.39 1010.05 1010.74 1011.46 1012.15 1012.80 1013.35 1013.76 1014.05 1014.22 1014.32 1014.40 1014.51 1014.71 1015.00 1015.39 1015.85 1016.34 1016.83 1017.28
1007.54 1007.11 1006.68 1006.26 1005.89 1005.54 1005.21 1004.88 1004.53 1004.13 1003.67 1003.17 1002.62 1002.07 1001.57 1001.15 1000.89 1000.83 1000.99 1001.38 1002.00 1002.78 1003.69 1004.65 1005.61 1006.52 1007.37 1008.16 1008.90 1009.61 1010.33 1011.04 1011.75 1012.43 1013.03 1013.54 1013.93 1014.18 1014.34 1014.42 1014.49 1014.60 1014.80 1015.10 1015.51 1016.02 1016.58 1017.15 1017.68
1007.49 1007.06 1006.63 1006.22 1005.84 1005.48 1005.14 1004.80 1004.45 1004.07 1003.67 1003.24 1002.80 1002.35 1001.94 1001.59 1001.35 1001.27 1001.37 1001.67 1002.16 1002.83 1003.64 1004.55 1005.49 1006.43 1007.35 1008.21 1009.04 1009.82 1010.58 1011.31 1012.00 1012.65 1013.22 1013.68 1014.04 1014.27 1014.41 1014.49 1014.56 1014.67 1014.87 1015.17 1015.60 1016.12 1016.72 1017.34 1017.94
1007.31 1006.91 1006.53 1006.16 1005.81 1005.48 1005.16 1004.84 1004.53 1004.23 1003.93 1003.63 1003.33 1003.04 1002.75 1002.49 1002.29 1002.17 1002.17 1002.33 1002.65 1003.14 1003.79 1004.57 1005.44 1006.36 1007.29 1008.20 1009.08 1009.92 1010.71 1011.46 1012.15 1012.77 1013.31 1013.75 1014.09 1014.32 1014.46 1014.55 1014.62 1014.74 1014.93 1015.22 1015.63 1016.15 1016.75 1017.39 1018.03
1007.01 1006.70 1006.41 1006.13 1005.85 1005.58 1005.30 1005.04 1004.80 1004.60 1004.43 1004.29 1004.17 1004.04 1003.91 1003.75 1003.59 1003.43 1003.32 1003.31 1003.42 1003.68 1004.11 1004.71 1005.44 1006.28 1007.18 1008.10 1009.01 1009.88 1010.70 1011.47 1012.17 1012.79 1013.32 1013.77 1014.11 1014.36 1014.52 1014.63 1014.72 1014.84 1015.01 1015.28 1015.66 1016.14 1016.71 1017.33 1017.97
1006.66 1006.49 1006.34 1006.18 1006.01 1005.82 1005.62 1005.42 1005.26 1005.15 1005.11 1005.13 1005.18 1005.23 1005.25 1005.21 1005.09 1004.91 1004.71 1004.52 1004.40 1004.42 1004.61 1004.98 1005.53 1006.24 1007.05 1007.93 1008.84 1009.73 1010.58 1011.38 1012.11 1012.76 1013.32 1013.80 1014.18 1014.47 1014.68 1014.83 1014.94 1015.06 1015.21 1015.44 1015.76 1016.18 1016.69 1017.26 1017.87
1006.36 1006.37 1006.39 1006.39 1006.35 1006.25 1006.12 1005.97 1005.86 1005.82 1005.88 1006.02 1006.22 1006.43 1006.60 1006.67 1006.62 1006.44 1006.16 1005.84 1005.53 1005.33 1005.27 1005.41 1005.76 1006.30 1007.00 1007.81 1008.68 1009.57 1010.45 1011.28 1012.06 1012.76 1013.39 1013.93 1014.38 1014.74 1015.01 1015.20 1015.34 1015.46 1015.59 1015.77 1016.02 1016.36 1016.79 1017.29 1017.84
1006.18 1006.40 1006.62 1006.79 1006.88 1006.87 1006.78 1006.66 1006.56 1006.54 1006.64 1006.85 1007.15 1007.48 1007.77 1007.96 1007.99 1007.85 1007.55 1007.15 1006.72 1006.34 1006.09 1006.03 1006.18 1006.55 1007.12 1007.84 1008.66 1009.53 1010.42 1011.29 1012.12 1012.89 1013.60 1014.22 1014.76 1015.19 1015.53 1015.77 1015.94 1016.06 1016.17 1016.30 1016.48 1016.73 1017.07 1017.49 1017.96
1006.19 1006.62 1007.03 1007.36 1007.56 1007.62 1007.55 1007.42 1007.29 1007.24 1007.32 1007.53 1007.87 1008.27 1008.66 1008.95 1009.09 1009.03 1008.78 1008.38 1007.90 1007.43 1007.06 1006.85 1006.85 1007.07 1007.51 1008.12 1008.87 1009.71 1010.59 1011.49 1012.37 1013.21 1014.00 1014.71 1015.32 1015.84 1016.24 1016.53 1016.72 1016.84 1016.92 1017.00 1017.12 1017.29 1017.55 1017.88 1018.27
1006.38 1006.99 1007.58 1008.05 1008.34 1008.44 1008.37 1008.19 1008.00 1007.87 1007.87 1008.04 1008.36 1008.79 1009.23 1009.62 1009.86 1009.92 1009.77 1009.45 1009.02 1008.56 1008.15 1007.87 1007.77 1007.89 1008.21 1008.72 1009.39 1010.18 1011.03 1011.93 1012.84 1013.73 1014.58 1015.36 1016.04 1016.62 1017.07 1017.39 1017.60 1017.72 1017.78 1017.82 1017.88 1017.99 1018.18 1018.44 1018.76
1006.71 1007.47 1008.18 1008.74 1009.10 1009.22 1009.13 1008.90 1008.62 1008.40 1008.30 1008.39 1008.65 1009.06 1009.53 1009.99 1010.34 1010.54 1010.54 1010.37 1010.06 1009.69 1009.33 1009.06 1008.93 1008.98 1009.22 1009.64 1010.23 1010.94 1011.74 1012.62 1013.52 1014.43 1015.31 1016.12 1016.85 1017.46 1017.94 1018.28 1018.50 1018.60 1018.65 1018.66 1018.68 1018.75 1018.89 1019.09 1019.36
1007.11 1007.93 1008.71 1009.32 1009.71 1009.84 1009.74 1009.46 1009.12 1008.81 1008.63 1008.62 1008.82 1009.18 1009.65 1010.16 1010.61 1010.95 1011.12 1011.14 1011.01 1010.80 1010.56 1010.36 1010.26 1010.30 1010.48 1010.83 1011.32 1011.95 1012.68 1013.49 1014.36 1015.24 1016.11 1016.93 1017.66 1018.28 1018.77 1019.11 1019.32 1019.42 1019.44 1019.44 1019.44 1019.49 1019.60 1019.77 1020.01
1007.45 1008.28 1009.05 1009.67 1010.07 1010.21 1010.11 1009.83 1009.47 1009.12 1008.88 1008.81 1008.95 1009.27 1009.73 1010.27 1010.80 1011.26 1011.60 1011.81 1011.89 1011.87 1011.80 1011.72 1011.69 1011.75 1011.91 1012.19 1012.60 1013.13 1013.77 1014.50 1015.29 1016.11 1016.94 1017.72 1018.43 1019.03 1019.50 1019.82 1020.02 1020.11 1020.12 1020.11 1020.11 1020.15 1020.26 1020.42 1020.64
1007.66 1008.42 1009.13 1009.71 1010.10 1010.25 1010.19 1009.96 1009.64 1009.33 1009.10 1009.03 1009.15 1009.45 1009.90 1010.44 1011.03 1011.59 1012.07 1012.45 1012.72 1012.89 1013.00 1013.07 1013.14 1013.24 1013.40 1013.65 1013.98 1014.41 1014.94 1015.56 1016.25 1016.99 1017.74 1018.47 1019.12 1019.68 1020.12 1020.42 1020.60 1020.67 1020.69 1020.68 1020.68 1020.73 1020.84 1021.01 1021.22
1007.71 1008.33 1008.93 1009.43 1009.79 1009.97 1009.98 1009.86 1009.66 1009.47 1009.34 1009.34 1009.49 1009.80 1010.25 1010.80 1011.41 1012.03 1012.61 1013.12 1013.55 1013.89 1014.16 1014.37 1014.54 1014.70 1014.88 1015.09 1015.36 1015.70 1016.12 1016.63 1017.21 1017.85 1018.51 1019.16 1019.75 1020.27 1020.66 1020.94 1021.09 1021.16 1021.18 1021.17 1021.18 1021.24 1021.36 1021.54 1021.76
Thickness
5797 5802 5806 5801 5786 5780 5784 5812 5832 5830 5827 5835 5838 5832 5823 5816 5803 5787 5817 5834 5833 5825 5816 5810 5807 5804 5801 5798 5795 5792 5789 5786 5782 5780 5777 5775 5773 5771 5769 5767 5765 5763 5761 5759 5758 5756 5754 5753 5752
5795 5803 5800 5789 5772 5767 5791 5822 5829 5831 5834 5839 5837 5832 5825 5820 5826 5823 5827 5833 5832 5824 5816 5810 5805 5802 5799 5796 5793 5790 5787 5783 5780 5778 5775 5773 5770 5769 5767 5764 5762 5761 5759 5757 5755 5753 5752 5751 5750
5791 5798 5786 5777 5768 5773 5796 5823 5829 5835 5840 5835 5831 5832 5826 5821 5828 5828 5831 5835 5831 5822 5815 5808 5803 5800 5796 5793 5790 5787 5784 5781 5778 5775 5773 5770 5768 5766 5764 5762 5760 5758 5756 5754 5753 5751 5750 5749 5748
5788 5786 5781 5771 5771 5794 5813 5830 5834 5831 5833 5836 5830 5822 5830 5837 5835 5836 5836 5835 5829 5822 5814 5804 5800 5796 5793 5790 5787 5783 5780 5777 5775 5772 5770 5767 5765 5763 5761 5759 5757 5755 5753 5752 5750 5749 5748 5747 5746
5785 5775 5762 5762 5777 5805 5829 5843 5841 5828 5826 5829 5827 5817 5816 5834 5840 5838 5835 5833 5826 5820 5812 5800 5797 5793 5789 5786 5783 5780 5777 5774 5771 5769 5766 5764 5762 5760 5758 5756 5754 5753 5751 5750 5748 5747 5746 5745 5745
5772 5769 5753 5757 5780 5809 5830 5843 5839 5828 5828 5832 5826 5817 5814 5832 5830 5832 5832 5828 5825 5817 5807 5795 5791 5788 5785 5782 5779 5776 5773 5770 5768 5765 5762 5760 5758 5757 5755 5753 5751 5750 5749 5747 5746 5745 5744 5743 5743
5763 5761 5757 5768 5784 5807 5831 5843 5833 5825 5822 5828 5832 5815 5813 5822 5828 5830 5828 5825 5821 5815 5803 5793 5788 5784 5780 5778 5775 5772 5769 5766 5764 5762 5759 5757 5755 5753 5752 5750 5749 5747 5746 5745 5744 5743 5742 5741 5741
5773 5762 5757 5770 5781 5799 5829 5832 5828 5820 5818 5836 5834 5813 5803 5813 5823 5823 5822 5820 5815 5808 5799 5792 5787 5782 5778 5774 5771 5768 5765 5762 5760 5758 5755 5754 5752 5750 5749 5747 5746 5745 5744 5742 5741 5741 5740 5740 5740
5775 5752 5750 5769 5786 5803 5823 5816 5819 5824 5818 5822 5827 5822 5817 5819 5820 5815 5811 5809 5805 5802 5797 5791 5787 5783 5778 5774 5769 5765 5761 5759 5757 5754 5752 5751 5749 5748 5746 5746 5743 5742 5741 5740 5740 5739 5739 5739 5739
5765 5746 5759 5786 5795 5798 5806 5806 5807 5806 5801 5804 5812 5819 5820 5816 5811 5805 5800 5797 5797 5795 5793 5791 5787 5783 5778 5775 5767 5763 5759 5756 5754 5753 5750 5748 5749 5747 5746 5744 5741 5740 5739 5739 5738 5738 5737 5738 5739
5764 5756 5772 5788 5794 5793 5789 5793 5802 5793 5787 5797 5803 5810 5813 5808 5805 5802 5797 5795 5794 5793 5789 5788 5785 5780 5777 5773 5765 5761 5758 5754 5752 5751 5749 5748 5748 5747 5744 5741 5738 5737 5737 5737 5737 5736 5737 5738 5741
5764 5768 5777 5782 5788 5783 5780 5783 5787 5788 5791 5806 5811 5814 5809 5803 5800 5798 5795 5791 5790 5787 5785 5784 5782 5777 5774 5771 5764 5760 5757 5753 5751 5749 5747 5746 5746 5746 5745 5742 5739 5738 5738 5738 5738 5737 5738 5740 5742
5765 5766 5776 5781 5780 5778 5777 5776 5778 5783 5797 5804 5805 5804 5800 5799 5796 5798 5797 5793 5787 5782 5781 5779 5778 5774 5770 5767 5760 5757 5755 5751 5749 5748 5745 5745 5745 5745 5745 5742 5741 5741 5741 5741 5740 5740 5740 5741 5741
5767 5770 5773 5777 5776 5776 5770 5771 5773 5779 5792 5792 5792 5791 5792 5792 5791 5788 5787 5783 5781 5779 5775 5775 5772 5769 5765 5761 5756 5754 5752 5749 5746 5745 5743 5743 5742 5741 5742 5741 5740 5740 5741 5741 5741 5741 5739 5737 5737
5767 5757 5759 5767 5770 5773 5769 5759 5770 5783 5788 5783 5783 5784 5784 5785 5784 5779 5778 5777 5777 5773 5770 5767 5766 5763 5759 5756 5754 5751 5748 5745 5743 5741 5740 5739 5738 5737 5736 5737 5736 5737 5738 5738 5737 5737 5737 5734 5732
5753 5744 5740 5763 5771 5773 5758 5743 5771 5786 5780 5774 5774 5774 5775 5774 5774 5772 5772 5771 5772 5768 5763 5760 5760 5757 5753 5751 5748 5745 5741 5741 5739 5736 5736 5735 5734 5733 5732 5732 5731 5732 5734 5734 5730 5731 5730 5728 5725
5740 5734 5744 5766 5776 5770 5756 5747 5768 5779 5773 5766 5765 5765 5767 5764 5761 5762 5761 5761 5762 5760 5756 5753 5751 5750 5748 5746 5743 5741 5737 5734 5734 5732 5730 5729 5728 5728 5726 5726 5726 5726 5727 5727 5725 5724 5723 5719 5718
5740 5748 5755 5761 5772 5764 5750 5749 5761 5770 5767 5761 5758 5757 5754 5750 5747 5749 5748 5748 5748 5750 5749 5747 5744 5741 5740 5738 5736 5733 5730 5728 5727 5725 5724 5721 5721 5721 5720 5720 5720 5720 5720 5720 5718 5716 5715 5713 5711
5747 5744 5744 5754 5768 5757 5748 5747 5753 5761 5758 5752 5748 5744 5738 5736 5738 5738 5734 5735 5735 5735 5736 5737 5735 5733 5731 5730 5727 5724 5722 5721 5720 5719 5718 5715 5714 5715 5714 5715 5714 5714 5713 5713 5712 5711 5707 5705 5704
5738 5732 5736 5749 5762 5752 5742 5740 5746 5750 5745 5742 5734 5727 5726 5723 5721 5721 5722 5722 5721 5719 5722 5725 5725 5725 5724 5723 5722 5719 5717 5715 5713 5712 5709 5707 5707 5708 5708 5708 5708 5708 5707 5706 5705 5704 5701 5698 5699
5730 5729 5732 5735 5746 5746 5736 5728 5736 5739 5735 5726 5722 5717 5713 5710 5706 5706 5706 5707 5707 5708 5711 5715 5714 5716 5716 5715 5714 5713 5710 5706 5703 5701 5699 5698 5699 5700 5701 5701 5701 5700 5699 5697 5696 5697 5695 5691 5691
5723 5740 5737 5732 5725 5721 5728 5706 5722 5725 5715 5706 5702 5700 5696 5693 5692 5692 5692 5691 5693 5696 5700 5702 5704 5706 5706 5707 5705 5703 5700 5696 5692 5692 5689 5688 5688 5689 5691 5691 5690 5690 5689 5688 5687 5687 5687 5686 5681
5729 5742 5735 5729 5721 5715 5716 5701 5703 5710 5695 5687 5683 5681 5680 5679 5678 5678 5677 5677 5679 5683 5687 5689 5691 5693 5695 5696 5696 5693 5691 5687 5684 5682 5680 5678 5676 5676 5678 5678 5678 5677 5676 5676 5676 5676 5676 5676 5674
5737 5732 5727 5724 5716 5695 5701 5690 5685 5690 5684 5675 5674 5672 5669 5668 5668 5667 5667 5667 5667 5669 5673 5675 5677 5679 5681 5683 5683 5683 5681 5677 5674 5671 5668 5666 5664 5663 5663 5664 5664 5664 5664 5664 5664 5663 5663 5662 5661
5728 5709 5691 5686 5681 5682 5694 5685 5676 5686 5688 5678 5670 5665 5662 5660 5659 5657 5656 5655 5654 5655 5658 5662 5665 5665 5667 5669 5670 5670 5670 5668 5665 5661 5657 5655 5652 5650 5649 5650 5651 5651 5651 5652 5652 5651 5650 5649 5648
5719 5710 5683 5665 5667 5676 5680 5668 5671 5683 5680 5674 5666 5660 5656 5653 5650 5647 5645 5643 5642 5643 5645 5648 5650 5651 5652 5654 5656 5656 5656 5655 5652 5649 5646 5643 5641 5639 5638 5638 5639 5638 5639 5639 5639 5639 5638 5637 5637
5713 5712 5717 5695 5687 5674 5674 5668 5664 5670 5664 5659 5656 5653 5647 5644 5641 5638 5635 5632 5630 5630 5631 5634 5636 5637 5639 5641 5642 5642 5642 5641 5638 5636 5634 5632 5629 5628 5627 5628 5627 5627 5627 5627 5627 5626 5625 5626 5626
5724 5718 5705 5687 5668 5660 5667 5662 5653 5652 5649 5649 5647 5644 5640 5636 5633 5630 5626 5622 5620 5619 5620 5621 5623 5624 5626 5628 5629 5629 5629 5628 5626 5625 5623 5621 5619 5618 5617 5618 5617 5617 5616 5616 5616 5615 5615 5615 5614
5711 5707 5702 5693 5686 5664 5652 5652 5662 5657 5654 5648 5643 5639 5635 5630 5625 5622 5618 5614 5611 5610 5609 5609 5611 5612 5613 5614 5615 5616 5616 5615 5614 5613 5612 5611 5609 5609 5608 5608 5608 5608 5606 5606 5605 5605 5606 5605 5604
5713 5707 5701 5678 5673 5675 5663 5648 5664 5660 5654 5646 5636 5631 5625 5621 5617 5613 5610 5606 5603 5600 5599 5598 5599 5600 5600 5601 5602 5602 5602 5602 5602 5601 5601 5600 5600 5600 5599 5599 5599 5598 5597 5597 5597 5597 5596 5595 5593